Minneapolis Flying Cloud, MN

1:50 AM CDT on May 23, 2017 (GMT -0500)
Flying Cloud

Weather History for KFCM - December, 2013

Change the Weather History Date:

Saturday, December 21, 2013

  Actual Average Record
Temperature  
Mean Temperature 19 °F -  
Max Temperature 21 °F 25 °F 37 °F (2003)
Min Temperature 17 °F 10 °F -11 °F (2008)
Degree Days  
Heating Degree Days 46    
Moisture  
Dew Point 13 °F    
Average Humidity 76    
Maximum Humidity 84    
Minimum Humidity 68    
Precipitation  
Precipitation 0.00 in - - ()
Sea Level Pressure  
Sea Level Pressure 29.95 in    
Wind  
Wind Speed 4 mph (North)    
Max Wind Speed 10 mph    
Max Gust Speed -    
Visibility 10 miles    
Events      
Averages and records for this station are not official NWS values.
T = Trace of Precipitation, MM = Missing Value Source: NWS Daily Summary

Daily Weather History Graph

Daily Weather History Graph

Search for Another Location

Airport or City:

Trip Planner

Search our weather history database for the weather conditions in past years. The results will help you decide how hot, cold, wet, or windy it might be!

Date:

Astronomy

Dec. 21, 2013 Rise Set
Actual Time 7:48 AM CST 4:35 PM CST
Civil Twilight 7:14 AM CST 5:09 PM CST
Nautical Twilight 6:37 AM CST 5:46 PM CST
Astronomical Twilight 6:01 AM CST 6:22 PM CST
Moon 9:02 PM CST (12/21) 10:06 AM CST (12/21)
Length of Visible Light 9h 54m
Length of Day
8h 47m
Waning Gibbous, 84% of the Moon is Illuminated
Dec 21
Waning Gibbous
Dec 25
Last Quarter
Jan 1
New
Jan 7
First Quarter
Jan 15
Full

Hourly Weather History & Observations

Time (CST) Temp. Windchill Dew Point Humidity Pressure Visibility Wind Dir Wind Speed Gust Speed Precip Events Conditions
12:53 AM 17.1 °F 11.7 °F 12.0 °F 81% 29.90 in 10.0 mi SW 3.5 mph - N/A   Overcast
1:53 AM 17.1 °F 11.7 °F 12.9 °F 84% 29.90 in 9.0 mi West 3.5 mph - N/A   Overcast
2:42 AM 17.6 °F 12.3 °F 10.4 °F 73% 29.87 in 10.0 mi West 3.5 mph - N/A   Overcast
2:53 AM 17.1 °F - 10.9 °F 77% 29.92 in 10.0 mi Calm Calm - N/A   Overcast
3:53 AM 17.1 °F - 10.9 °F 77% 29.91 in 10.0 mi Calm Calm - N/A   Overcast
4:53 AM 17.1 °F - 10.9 °F 77% 29.91 in 10.0 mi Calm Calm - N/A   Overcast
5:53 AM 17.1 °F - 10.9 °F 77% 29.90 in 10.0 mi Calm Calm - N/A   Overcast
6:53 AM 17.1 °F 11.7 °F 10.9 °F 77% 29.92 in 10.0 mi North 3.5 mph - N/A   Overcast
7:53 AM 18.0 °F - 12.0 °F 78% 29.94 in 10.0 mi Calm Calm - N/A   Overcast
8:53 AM 18.0 °F 8.7 °F 12.0 °F 78% 29.96 in 8.0 mi North 6.9 mph - N/A   Overcast
9:53 AM 19.0 °F 11.1 °F 12.0 °F 74% 29.97 in 8.0 mi NNE 5.8 mph - N/A   Overcast
10:53 AM 19.9 °F 14.9 °F 12.9 °F 74% 30.00 in 9.0 mi ENE 3.5 mph - N/A   Overcast
11:53 AM 21.0 °F 12.4 °F 12.9 °F 71% 29.94 in 8.0 mi North 6.9 mph - N/A   Overcast
12:53 PM 21.9 °F 15.7 °F 12.9 °F 68% 29.97 in 9.0 mi NNE 4.6 mph - N/A   Overcast
1:53 PM 21.9 °F 14.5 °F 14.0 °F 72% 29.96 in 9.0 mi North 5.8 mph - N/A   Overcast
2:53 PM 21.9 °F 14.5 °F 14.0 °F 72% 29.95 in 9.0 mi North 5.8 mph - N/A   Overcast
3:53 PM 21.9 °F 12.5 °F 14.0 °F 72% 29.98 in 9.0 mi North 8.1 mph - N/A   Overcast
4:53 PM 21.0 °F 11.4 °F 14.0 °F 74% 29.99 in 9.0 mi NNE 8.1 mph - N/A   Overcast
5:53 PM 21.0 °F 12.4 °F 14.0 °F 74% 29.98 in 10.0 mi NNE 6.9 mph - N/A   Overcast
6:53 PM 21.0 °F 13.4 °F 14.0 °F 74% 30.02 in 10.0 mi NNE 5.8 mph - N/A   Overcast
7:53 PM 19.9 °F 12.1 °F 14.0 °F 78% 30.01 in 10.0 mi North 5.8 mph - N/A   Overcast
8:53 PM 19.9 °F 9.3 °F 14.0 °F 78% 29.98 in 10.0 mi North 9.2 mph - N/A   Overcast
9:53 PM 19.9 °F 8.6 °F 14.0 °F 78% 29.96 in 10.0 mi NNE 10.4 mph - N/A   Overcast
10:44 PM 19.4 °F 9.5 °F 12.2 °F 74% 29.93 in 10.0 mi NNE 8.1 mph - N/A   Overcast
10:53 PM 19.0 °F 10.0 °F 12.9 °F 77% 29.98 in 10.0 mi NNE 6.9 mph - N/A   Overcast
11:53 PM 18.0 °F 6.1 °F 12.0 °F 78% 29.97 in 10.0 mi North 10.4 mph - N/A   Overcast